Regional Weather Roundup
Issued by NWS Nashville, TN

Home | Current Version | Previous Version | Text Only | Print | Product List | Glossary On
Versions: 1 2 3 4 5 6 7 8 9 10 11 12 13 14 15 16 17 18 19 20 21 22 23 24 25 26 27 28 29 30 31 32 33 34 35 36 37 38 39 40 41 42 43 44 45 46 47 48 49 50
000
ASUS44 KOHX 291715
RWROHX
MIDDLE TENNESSEE HOURLY WEATHER ROUNDUP
NATIONAL WEATHER SERVICE NASHVILLE TN
1100 AM CST THU JAN 29 2015

NOTE: "FAIR" INDICATES FEW OR NO CLOUDS BELOW 12,000 FEET WITH
NO SIGNIFICANT WEATHER AND/OR OBSTRUCTIONS TO VISIBILITY.

* THESE REPORTS ARE NOT UNDER NWS QUALITY CONTROL AND MAY NOT
  REPORT WEATHER SUCH AS PRECIPITATION AND FOG.


TNZ005>011-023>034-057-059-062>066-078-080-291800
...NORTHERN MIDDLE TENNESSEE...

CITY           SKY/WX    TMP DP  RH WIND       PRES   REMARKS
CLARKSVILLE    MOSUNNY   61  41  47 W15G29    30.02R
CROSSVILLE     MOSUNNY   46  32  58 S13G25    30.09F
GALLATIN         N/A     59  39  47 SW9G23    30.04F
DICKSON        SUNNY     61  41  48 SW22      30.03R
LEBANON        SUNNY     58  36  43 SW25      30.02F
LIVINGSTON     MOSUNNY   55  39  54 SW23G35   30.02F
NASHVILLE      MOSUNNY   59  36  42 SW16G26   30.04F
WEST NASHVILLE   N/A     59  36  41 SW22      30.02F
PORTLAND       SUNNY     57  37  47 SW10      30.00S
SMYRNA         SUNNY     59  36  42 SW18G25   30.06F
SPARTA         SUNNY     57  37  47 SW23      30.06F
$$
TNZ056-058-060-061-075>077-079-093>097-291800
...SOUTHERN MIDDLE TENNESSEE...

CITY           SKY/WX    TMP DP  RH WIND       PRES   REMARKS
COLUMBIA       MOSUNNY   55  37  50 SW21      30.06S
LEWISBURG      MOSUNNY   58  35  42 SW15      30.07F
MCMINNVILLE    SUNNY     54  36  50 S12       30.07F
MURFREESBORO   SUNNY     57  34  42 SW16      30.06F
SHELBYVILLE    SUNNY     57  37  47 S20       30.09F
TULLAHOMA      SUNNY     52  34  50 SW16      30.11F
WINCHESTER     MOSUNNY   54  34  47 SW9       30.13F
$$


...KEY TO REMARKS...
VSB - VISIBILITY IN MILES
WCI - WIND CHILL INDEX
HX  - HEAT INDEX




USA.gov is the U.S. government's official web portal to all federal, state and local government web resources and services.